Back to catalog

STARLINK-5606

AliveCommunicationsVLEO
NORAD 55767·PAYLOAD·🇺🇸 United States

Launched Mar 3, 2023 from Vandenberg Space Force Base

Loading…

Next Passes (next 24 hours)

TLE

FreshSource: CelesTrak SupGP

Epoch: Sep 14, 2026, 14:29 UTC

1 55767C 23028AC  26257.60395833  .00003938  00000+0  33002-3 0  2574
2 55767  69.9998 108.3222 0002599 264.5178 184.0529 14.98333400    13

Track STARLINK-5606 in real time with AllMySat

Download on the App Store